| time (UTC) | temp F | wind direction | speed MPH | gust MPH | rain 1hr in | rain 24hr in | rain mn in | humidity % | barometer mb |
| 20260504210225 | 78 | 148 | 2.0 | 3.0 | 0.00 | 0.00 | 0.00 | 68 | 1016.6 |
| 20260504205722 | 78 | 234 | 6.0 | 7.0 | 0.00 | 0.00 | 0.00 | 67 | 1016.7 |
| 20260504205220 | 79 | 198 | 2.0 | 3.0 | 0.00 | 0.00 | 0.00 | 67 | 1016.4 |
| 20260504204718 | 79 | 213 | 3.0 | 5.0 | 0.00 | 0.00 | 0.00 | 66 | 1016.5 |
| 20260504204216 | 80 | 228 | 5.0 | 8.0 | 0.00 | 0.00 | 0.00 | 65 | 1016.9 |
| 20260504203715 | 80 | 190 | 1.0 | 2.0 | 0.00 | 0.00 | 0.00 | 65 | 1016.9 |
| 20260504203212 | 82 | 135 | 3.0 | 6.0 | 0.00 | 0.00 | 0.00 | 62 | 1016.8 |
| 20260504202712 | 79 | 184 | 1.0 | 1.0 | 0.00 | 0.00 | 0.00 | 65 | 1017.2 |
| 20260504202210 | 81 | 226 | 4.0 | 6.0 | 0.00 | 0.00 | 0.00 | 64 | 1017.2 |
| 20260504201706 | 80 | 282 | 3.0 | 7.0 | 0.00 | 0.00 | 0.00 | 65 | 1017.0 |
| 20260504201204 | 79 | 207 | 2.0 | 3.0 | 0.00 | 0.00 | 0.00 | 66 | 1017.0 |
| 20260504200701 | 81 | 133 | 3.0 | 3.0 | 0.00 | 0.00 | 0.00 | 63 | 1017.1 |
| 20260504200157 | 82 | 161 | 2.0 | 2.0 | 0.00 | 0.00 | 0.00 | 62 | 1017.2 |
| 20260504195653 | 80 | 119 | 2.0 | 2.0 | 0.00 | 0.00 | 0.00 | 63 | 1017.3 |
| 20260504195150 | 80 | 258 | 4.0 | 7.0 | 0.00 | 0.00 | 0.00 | 64 | 1017.5 |
| 20260504194647 | 81 | 88 | 3.0 | 6.0 | 0.00 | 0.00 | 0.00 | 62 | 1017.4 |
| 20260504194142 | 80 | 268 | 4.0 | 7.0 | 0.00 | 0.00 | 0.00 | 63 | 1017.6 |
| 20260504193639 | 80 | 145 | 1.0 | 2.0 | 0.00 | 0.00 | 0.00 | 64 | 1017.3 |
| 20260504193137 | 82 | 256 | 5.0 | 6.0 | 0.00 | 0.00 | 0.00 | 63 | 1017.7 |
| 20260504192635 | 81 | 139 | 2.0 | 3.0 | 0.00 | 0.00 | 0.00 | 63 | 1017.7 |
| 20260504192133 | 80 | 158 | 2.0 | 2.0 | 0.00 | 0.00 | 0.00 | 64 | 1017.6 |
| 20260504191631 | 79 | 273 | 6.0 | 8.0 | 0.00 | 0.00 | 0.00 | 65 | 1017.7 |
| 20260504191127 | 80 | 159 | 1.0 | 1.0 | 0.00 | 0.00 | 0.00 | 63 | 1017.6 |
| 20260504190623 | 81 | 260 | 1.0 | 2.0 | 0.00 | 0.00 | 0.00 | 62 | 1017.7 |
| 20260504190120 | 79 | 246 | 6.0 | 9.0 | 0.00 | 0.00 | 0.00 | 65 | 1018.0 |
| 20260504185616 | 80 | 230 | 5.0 | 6.0 | 0.00 | 0.00 | 0.00 | 64 | 1018.1 |
| 20260504185113 | 80 | 178 | 0.0 | 1.0 | 0.00 | 0.00 | 0.00 | 62 | 1017.9 |
| 20260504184609 | 79 | 194 | 4.0 | 5.0 | 0.00 | 0.00 | 0.00 | 62 | 1017.8 |
| 20260504184104 | 80 | 235 | 4.0 | 5.0 | 0.00 | 0.00 | 0.00 | 63 | 1017.6 |
| 20260504183602 | 80 | 250 | 7.0 | 9.0 | 0.00 | 0.00 | 0.00 | 61 | 1017.7 |
| 20260504183059 | 80 | 244 | 3.0 | 6.0 | 0.00 | 0.00 | 0.00 | 64 | 1017.9 |
| 20260504182556 | 80 | 182 | 0.0 | 1.0 | 0.00 | 0.00 | 0.00 | 64 | 1018.0 |
| 20260504182054 | 79 | 232 | 3.0 | 5.0 | 0.00 | 0.00 | 0.00 | 64 | 1018.2 |
| 20260504181550 | 79 | 111 | 5.0 | 8.0 | 0.00 | 0.00 | 0.00 | 64 | 1018.1 |
| 20260504181049 | 80 | 169 | 1.0 | 1.0 | 0.00 | 0.00 | 0.00 | 62 | 1018.3 |
| 20260504180547 | 80 | 218 | 3.0 | 5.0 | 0.00 | 0.00 | 0.00 | 62 | 1018.5 |
| 20260504180046 | 79 | 195 | 2.0 | 3.0 | 0.00 | 0.00 | 0.00 | 63 | 1018.3 |
| 20260504175543 | 79 | 268 | 5.0 | 6.0 | 0.00 | 0.00 | 0.00 | 66 | 1018.3 |
| 20260504175040 | 79 | 293 | 2.0 | 3.0 | 0.00 | 0.00 | 0.00 | 63 | 1018.2 |
| 20260504174538 | 78 | 263 | 3.0 | 5.0 | 0.00 | 0.00 | 0.00 | 63 | 1018.6 |
| 20260504174034 | 80 | 223 | 4.0 | 5.0 | 0.00 | 0.00 | 0.00 | 62 | 1018.5 |
| 20260504173531 | 80 | 204 | 3.0 | 3.0 | 0.00 | 0.00 | 0.00 | 63 | 1018.9 |
| 20260504173028 | 79 | 272 | 6.0 | 7.0 | 0.00 | 0.00 | 0.00 | 64 | 1018.7 |
| 20260504172524 | 79 | 294 | 7.0 | 10.0 | 0.00 | 0.00 | 0.00 | 62 | 1018.7 |
| 20260504172021 | 79 | 177 | 2.0 | 2.0 | 0.00 | 0.00 | 0.00 | 63 | 1018.8 |
| 20260504171518 | 79 | 147 | 2.0 | 2.0 | 0.00 | 0.00 | 0.00 | 64 | 1018.9 |
| 20260504171015 | 78 | 251 | 4.0 | 8.0 | 0.00 | 0.00 | 0.00 | 65 | 1019.1 |
| 20260504170510 | 78 | 279 | 3.0 | 6.0 | 0.00 | 0.00 | 0.00 | 64 | 1019.2 |
| 20260504160431 | 77 | 162 | 4.0 | 6.0 | 0.00 | 0.00 | 0.00 | 66 | 1019.4 |
| 20260504150855 | 74 | 260 | 3.0 | 3.0 | 0.00 | 0.00 | 0.00 | 69 | 1019.5 |
| 20260504150351 | 74 | 211 | 7.0 | 9.0 | 0.00 | 0.00 | 0.00 | 68 | 1019.3 |
| 20260504141321 | 74 | 173 | 0.0 | 1.0 | 0.00 | 0.00 | 0.00 | 71 | 1019.3 |
| 20260504140818 | 73 | 128 | 0.0 | 1.0 | 0.00 | 0.00 | 0.00 | 71 | 1019.4 |
| 20260504140314 | 73 | 153 | 1.0 | 1.0 | 0.00 | 0.00 | 0.00 | 71 | 1019.3 |
| 20260504130743 | 69 | 180 | 1.0 | 1.0 | 0.00 | 0.00 | 0.00 | 72 | 1019.5 |
| 20260504130238 | 69 | 180 | 1.0 | 1.0 | 0.00 | 0.00 | 0.00 | 72 | 1019.5 |
| 20260504120202 | 62 | 180 | 0.0 | 0.0 | 0.00 | 0.00 | 0.00 | 80 | 1019.0 |
| 20260504110630 | 62 | 181 | 0.0 | 0.0 | 0.00 | 0.00 | 0.00 | 80 | 1019.0 |
| 20260504110125 | 62 | 181 | 0.0 | 0.0 | 0.00 | 0.00 | 0.00 | 80 | 1019.0 |
| 20260504100551 | 62 | 181 | 0.0 | 0.0 | 0.00 | 0.00 | 0.00 | 82 | 1019.1 |
| 20260504081945 | 64 | 180 | 0.0 | 0.0 | 0.00 | 0.00 | 0.00 | 76 | 1020.0 |
| 20260504081442 | 64 | 180 | 0.0 | 0.0 | 0.00 | 0.00 | 0.00 | 76 | 1019.8 |
| 20260504080938 | 64 | 180 | 0.0 | 0.0 | 0.00 | 0.00 | 0.00 | 75 | 1020.3 |
| 20260504080435 | 64 | 180 | 0.0 | 0.0 | 0.00 | 0.00 | 0.00 | 75 | 1020.1 |
| 20260504070403 | 64 | 185 | 0.0 | 0.0 | 0.00 | 0.00 | 0.00 | 75 | 1020.7 |
| 20260504050750 | 65 | 154 | 0.0 | 0.0 | 0.00 | 0.00 | 0.00 | 72 | 1021.8 |
| 20260504050247 | 65 | 155 | 0.0 | 0.0 | 0.00 | 0.00 | 0.00 | 71 | 1021.7 |
| 20260504045745 | 65 | 155 | 0.0 | 0.0 | 0.00 | 0.00 | 0.00 | 71 | 1021.8 |
| 20260504045239 | 66 | 159 | 0.0 | 0.0 | 0.00 | 0.00 | 0.00 | 71 | 1022.1 |
| 20260504044737 | 66 | 147 | 0.0 | 0.0 | 0.00 | 0.00 | 0.00 | 70 | 1022.1 |
| 20260504044234 | 66 | 208 | 0.0 | 0.0 | 0.00 | 0.00 | 0.00 | 70 | 1022.3 |
| 20260504043731 | 66 | 209 | 1.0 | 1.0 | 0.00 | 0.00 | 0.00 | 70 | 1022.0 |
| 20260504043228 | 66 | 210 | 0.0 | 2.0 | 0.00 | 0.00 | 0.00 | 70 | 1022.0 |
| 20260504042726 | 65 | 192 | 0.0 | 0.0 | 0.00 | 0.00 | 0.00 | 70 | 1022.0 |
| 20260504042222 | 65 | 192 | 0.0 | 0.0 | 0.00 | 0.00 | 0.00 | 70 | 1021.9 |
| 20260504041718 | 66 | 192 | 0.0 | 0.0 | 0.00 | 0.00 | 0.00 | 70 | 1022.0 |
| 20260504041214 | 66 | 192 | 0.0 | 0.0 | 0.00 | 0.00 | 0.00 | 69 | 1021.6 |
| 20260504040711 | 66 | 192 | 0.0 | 0.0 | 0.00 | 0.00 | 0.00 | 68 | 1022.0 |
| 20260504040208 | 67 | 192 | 0.0 | 1.0 | 0.00 | 0.00 | 0.00 | 67 | 1022.1 |
| 20260504035704 | 67 | 192 | 0.0 | 0.0 | 0.00 | 0.00 | 0.00 | 67 | 1022.1 |
| 20260504035202 | 67 | 192 | 2.0 | 2.0 | 0.00 | 0.00 | 0.00 | 67 | 1022.1 |
| 20260504034659 | 67 | 193 | 0.0 | 0.0 | 0.00 | 0.00 | 0.00 | 68 | 1022.2 |
| 20260504034156 | 66 | 193 | 0.0 | 0.0 | 0.00 | 0.00 | 0.00 | 68 | 1022.0 |
| 20260504033654 | 66 | 193 | 0.0 | 0.0 | 0.00 | 0.00 | 0.00 | 68 | 1022.2 |
| 20260504033151 | 66 | 193 | 0.0 | 0.0 | 0.00 | 0.00 | 0.00 | 68 | 1021.9 |
| 20260504032647 | 67 | 193 | 0.0 | 0.0 | 0.00 | 0.00 | 0.00 | 67 | 1022.0 |
| 20260504032145 | 67 | 193 | 0.0 | 0.0 | 0.00 | 0.00 | 0.00 | 66 | 1022.3 |
| 20260504031642 | 68 | 193 | 0.0 | 0.0 | 0.00 | 0.00 | 0.00 | 65 | 1021.9 |
| 20260504031138 | 67 | 193 | 0.0 | 0.0 | 0.00 | 0.00 | 0.00 | 65 | 1021.9 |
| 20260504030634 | 68 | 193 | 0.0 | 0.0 | 0.00 | 0.00 | 0.00 | 65 | 1022.0 |
| 20260504030131 | 68 | 193 | 0.0 | 0.0 | 0.00 | 0.00 | 0.00 | 64 | 1022.0 |
| 20260504025628 | 68 | 193 | 0.0 | 0.0 | 0.00 | 0.00 | 0.00 | 63 | 1022.0 |
| 20260504025125 | 69 | 192 | 0.0 | 0.0 | 0.00 | 0.00 | 0.00 | 63 | 1022.1 |
| 20260504024622 | 68 | 193 | 1.0 | 1.0 | 0.00 | 0.00 | 0.00 | 63 | 1022.2 |
| 20260504024119 | 68 | 193 | 1.0 | 1.0 | 0.00 | 0.00 | 0.00 | 63 | 1022.2 |
| 20260504023615 | 69 | 201 | 2.0 | 2.0 | 0.00 | 0.00 | 0.00 | 63 | 1022.0 |
| 20260504023111 | 69 | 210 | 1.0 | 1.0 | 0.00 | 0.00 | 0.00 | 62 | 1022.0 |
| 20260504022608 | 69 | 193 | 0.0 | 0.0 | 0.00 | 0.00 | 0.00 | 62 | 1021.9 |
| 20260504022104 | 69 | 192 | 1.0 | 1.0 | 0.00 | 0.00 | 0.00 | 62 | 1022.0 |
| 20260504021602 | 69 | 195 | 1.0 | 2.0 | 0.00 | 0.00 | 0.00 | 61 | 1022.0 |
| 20260504021058 | 70 | 216 | 2.0 | 2.0 | 0.00 | 0.00 | 0.00 | 60 | 1022.1 |
| 20260504020555 | 70 | 171 | 1.0 | 2.0 | 0.00 | 0.00 | 0.00 | 60 | 1022.1 |
| 20260504020051 | 70 | 196 | 0.0 | 0.0 | 0.00 | 0.00 | 0.00 | 60 | 1022.0 |
| 20260504015548 | 70 | 225 | 1.0 | 1.0 | 0.00 | 0.00 | 0.00 | 60 | 1022.0 |
| 20260504015044 | 70 | 217 | 2.0 | 2.0 | 0.00 | 0.00 | 0.00 | 60 | 1022.2 |
| 20260504014540 | 70 | 208 | 3.0 | 3.0 | 0.00 | 0.00 | 0.00 | 60 | 1022.1 |
| 20260504014038 | 70 | 223 | 2.0 | 3.0 | 0.00 | 0.00 | 0.00 | 60 | 1022.0 |
| 20260504013535 | 70 | 199 | 1.0 | 1.0 | 0.00 | 0.00 | 0.00 | 60 | 1021.8 |
| 20260504013032 | 71 | 174 | 0.0 | 0.0 | 0.00 | 0.00 | 0.00 | 60 | 1021.9 |
| 20260504012530 | 71 | 183 | 2.0 | 2.0 | 0.00 | 0.00 | 0.00 | 59 | 1022.0 |
| 20260504012027 | 71 | 177 | 0.0 | 0.0 | 0.00 | 0.00 | 0.00 | 59 | 1022.0 |
| 20260504011524 | 71 | 194 | 1.0 | 1.0 | 0.00 | 0.00 | 0.00 | 58 | 1021.8 |
| 20260504011020 | 71 | 223 | 2.0 | 3.0 | 0.00 | 0.00 | 0.00 | 57 | 1021.8 |
| 20260504010516 | 71 | 164 | 2.0 | 2.0 | 0.00 | 0.00 | 0.00 | 57 | 1021.7 |
| 20260504010012 | 72 | 205 | 1.0 | 1.0 | 0.00 | 0.00 | 0.00 | 57 | 1022.0 |
| 20260504005509 | 72 | 201 | 3.0 | 5.0 | 0.00 | 0.00 | 0.00 | 56 | 1021.8 |
| 20260504005006 | 72 | 203 | 1.0 | 2.0 | 0.00 | 0.00 | 0.00 | 56 | 1021.8 |
| 20260504004504 | 72 | 197 | 2.0 | 3.0 | 0.00 | 0.00 | 0.00 | 55 | 1021.8 |
| 20260504004001 | 72 | 148 | 1.0 | 2.0 | 0.00 | 0.00 | 0.00 | 55 | 1022.0 |
| 20260504003456 | 73 | 218 | 4.0 | 5.0 | 0.00 | 0.00 | 0.00 | 54 | 1021.8 |
| 20260504002954 | 73 | 220 | 5.0 | 7.0 | 0.00 | 0.00 | 0.00 | 54 | 1021.9 |
| 20260504002451 | 73 | 239 | 2.0 | 3.0 | 0.00 | 0.00 | 0.00 | 54 | 1021.9 |
| 20260504001948 | 73 | 190 | 3.0 | 3.0 | 0.00 | 0.00 | 0.00 | 53 | 1021.9 |
| 20260504001445 | 73 | 186 | 3.0 | 6.0 | 0.00 | 0.00 | 0.00 | 53 | 1022.0 |
| 20260504000942 | 73 | 197 | 2.0 | 3.0 | 0.00 | 0.00 | 0.00 | 53 | 1021.9 |
| 20260504000439 | 74 | 185 | 3.0 | 3.0 | 0.00 | 0.00 | 0.00 | 53 | 1021.9 |
| 20260503235936 | 74 | 250 | 2.0 | 3.0 | 0.00 | 0.00 | 0.00 | 52 | 1021.9 |
| 20260503235434 | 74 | 165 | 0.0 | 1.0 | 0.00 | 0.00 | 0.00 | 51 | 1021.9 |
| 20260503234931 | 75 | 182 | 2.0 | 3.0 | 0.00 | 0.00 | 0.00 | 50 | 1022.3 |
| 20260503234429 | 75 | 167 | 1.0 | 2.0 | 0.00 | 0.00 | 0.00 | 49 | 1022.1 |
| 20260503233927 | 75 | 183 | 1.0 | 2.0 | 0.00 | 0.00 | 0.00 | 49 | 1022.4 |
| 20260503233423 | 75 | 216 | 5.0 | 6.0 | 0.00 | 0.00 | 0.00 | 49 | 1022.5 |
| 20260503232919 | 75 | 174 | 1.0 | 2.0 | 0.00 | 0.00 | 0.00 | 47 | 1022.3 |
| 20260503232416 | 76 | 178 | 3.0 | 5.0 | 0.00 | 0.00 | 0.00 | 47 | 1022.1 |
| 20260503231914 | 76 | 218 | 5.0 | 6.0 | 0.00 | 0.00 | 0.00 | 47 | 1022.3 |
| 20260503231411 | 76 | 134 | 0.0 | 0.0 | 0.00 | 0.00 | 0.00 | 47 | 1022.6 |
| 20260503230908 | 77 | 139 | 0.0 | 1.0 | 0.00 | 0.00 | 0.00 | 46 | 1022.5 |
| 20260503230404 | 77 | 144 | 2.0 | 2.0 | 0.00 | 0.00 | 0.00 | 47 | 1022.4 |
| 20260503225902 | 77 | 130 | 1.0 | 1.0 | 0.00 | 0.00 | 0.00 | 48 | 1022.5 |
| 20260503225358 | 77 | 112 | 1.0 | 1.0 | 0.00 | 0.00 | 0.00 | 48 | 1022.6 |
| 20260503224854 | 77 | 113 | 1.0 | 1.0 | 0.00 | 0.00 | 0.00 | 47 | 1022.5 |
| 20260503224351 | 77 | 113 | 1.0 | 1.0 | 0.00 | 0.00 | 0.00 | 47 | 1022.5 |
| 20260503223849 | 78 | 81 | 2.0 | 3.0 | 0.00 | 0.00 | 0.00 | 46 | 1022.7 |
| 20260503223347 | 77 | 136 | 3.0 | 3.0 | 0.00 | 0.00 | 0.00 | 47 | 1022.6 |
| 20260503222842 | 79 | 132 | 1.0 | 2.0 | 0.00 | 0.00 | 0.00 | 45 | 1022.9 |
| 20260503222341 | 78 | 94 | 0.0 | 0.0 | 0.00 | 0.00 | 0.00 | 46 | 1022.8 |
| 20260503221838 | 79 | 123 | 1.0 | 1.0 | 0.00 | 0.00 | 0.00 | 45 | 1022.8 |
| 20260503221337 | 79 | 122 | 2.0 | 2.0 | 0.00 | 0.00 | 0.00 | 45 | 1022.8 |
| 20260503220832 | 80 | 113 | 1.0 | 2.0 | 0.00 | 0.00 | 0.00 | 44 | 1022.7 |
| 20260503220330 | 80 | 116 | 1.0 | 1.0 | 0.00 | 0.00 | 0.00 | 45 | 1022.7 |
| 20260503215826 | 78 | 137 | 1.0 | 1.0 | 0.00 | 0.00 | 0.00 | 45 | 1022.7 |
| 20260503215324 | 79 | 93 | 0.0 | 0.0 | 0.00 | 0.00 | 0.00 | 46 | 1023.0 |
| 20260503214821 | 80 | 138 | 1.0 | 1.0 | 0.00 | 0.00 | 0.00 | 45 | 1023.0 |
| 20260503214318 | 82 | 120 | 0.0 | 1.0 | 0.00 | 0.00 | 0.00 | 44 | 1023.1 |
| 20260503213816 | 81 | 131 | 1.0 | 1.0 | 0.00 | 0.00 | 0.00 | 42 | 1022.9 |
| 20260503213313 | 80 | 81 | 1.0 | 2.0 | 0.00 | 0.00 | 0.00 | 43 | 1023.4 |
| 20260503212810 | 80 | 149 | 2.0 | 2.0 | 0.00 | 0.00 | 0.00 | 42 | 1023.4 |
| 20260503212308 | 81 | 98 | 3.0 | 3.0 | 0.00 | 0.00 | 0.00 | 43 | 1023.4 |
| 20260503211805 | 82 | 114 | 2.0 | 2.0 | 0.00 | 0.00 | 0.00 | 41 | 1023.5 |
| 20260503211302 | 81 | 127 | 0.0 | 1.0 | 0.00 | 0.00 | 0.00 | 43 | 1023.2 |
| 20260503210801 | 81 | 83 | 1.0 | 2.0 | 0.00 | 0.00 | 0.00 | 42 | 1023.5 |
| 20260503210259 | 80 | 104 | 1.0 | 2.0 | 0.00 | 0.00 | 0.00 | 43 | 1023.5 |